Regional Weather Roundup
Issued by NWS

Home | Current Version | Previous Version | Graphics & Text | Print | Product List | Glossary On
Versions: 1 2 3 4 5 6 7 8 9 10 11 12 13 14 15 16 17 18 19 20 21 22 23 24 25 26 27 28 29 30 31 32 33 34 35 36 37 38 39 40 41 42 43 44 45 46 47 48 49 50
000
ASUS43 KIND 092109
RWRIN

WEATHER ROUNDUP FOR INDIANA
NATIONAL WEATHER SERVICE INDIANAPOLIS IN
400 PM EST FRI DEC 09 2016

NOTE: "FAIR" INDICATES FEW OR NO CLOUDS BELOW 12,000 FEET WITH NO
SIGNIFICANT WEATHER AND/OR OBSTRUCTIONS TO VISIBILITY.

* - STATION DOES NOT REPORT WEATHER SUCH AS PRECIPITATION OR FOG.

+ - STATION NOT QUALITY CONTROLLED BY THE NATIONAL WEATHER SERVICE.
    USE DATA WITH CAUTION...ESPECIALLY DEWPOINT AND RELATIVE
    HUMIDITY OBSERVATIONS.

INZ001>003-010>013-019-020-092200-
NORTHWEST INDIANA

CITY           SKY/WX    TMP DP  RH WIND       PRES   REMARKS
GARY /AIRPORT/ PTSUNNY   27  14  59 W8G20     30.51S WCI  18
KNOX *+        SUNNY     27  -6  24 W9        30.49S WCI  17
LA PORTE +     CLOUDY    25  17  70 W12       30.48S WCI  14
MICHIGAN CITY+ CLOUDY    27  18  69 SW6       30.49S WCI  20
MONTICELLO +   CLOUDY    26  11  53 W9        30.51R WCI  16
RENSSELAER +     N/A     27  21  80 W12       30.51S WCI  16
VALPARAISO     MOSUNNY   26  14  60 W10       30.49S WCI  16

$$

LMZ046-743>745-092200-
SOUTHERN LAKE MICHIGAN

STATION/POSITION TIME  TEMP    WIND        PRES    WAVE
                       AIR SEA DIR/SP/G            HT
                 (UTC) (F)     (DEG/KT/KT) (MB)    (FT)

$$

INZ004-005-014>016-021>024-092200-
NORTH CENTRAL INDIANA

CITY           SKY/WX    TMP DP  RH WIND       PRES   REMARKS
ELKHART        FLURRIES  27  21  80 W13       30.45S WCI  16
GOSHEN         PTSUNNY   26  17  68 W13       30.46R WCI  15
LOGANSPORT +   LGT SNOW  27  18  69 W5        30.51S WCI  21
PERU/GRISSOM   FLURRIES  26  16  65 W10       30.47S WCI  16
ROCHESTER +    CLOUDY    30  18  59 W8        30.48S WCI  23
SOUTH BEND     LGT SNOW  23  19  85 W8        30.47S FOG     WCI  14
WARSAW +       CLOUDY    28  14  54 W14       30.46S WCI  17

$$

INZ006>009-017-018-025>027-092200-
NORTHEAST INDIANA

CITY           SKY/WX    TMP DP  RH WIND       PRES   REMARKS
ANGOLA *+      CLOUDY    27  19  74 W10       30.41R WCI  17
AUBURN +       CLOUDY    30  18  59 W13       30.44S WCI  20
FORT WAYNE     FLURRIES  29  15  56 W13       30.46R WCI  19
HUNTINGTON +   CLOUDY    28  14  56 W12G18    30.47R WCI  17
KENDALLVILLE + PTCLDY    27  18  70 W12G17    30.43R WCI  16

$$

INZ028-029-035-036-043>045-051>053-092200-
WEST CENTRAL INDIANA

CITY           SKY/WX    TMP DP  RH WIND       PRES   REMARKS
CRAWFORDSVL +  CLOUDY    24  16  70 W7        30.51F WCI  16
GREENCASTLE +  CLOUDY    27  16  63 W3        30.52F
LAFAYETTE      CLOUDY    25  15  66 NW9       30.52S WCI  15
TERRE HAUTE    CLOUDY    27  13  55 W6        30.54F WCI  20

$$

INZ030>032-037>040-046>048-054>057-064-065-092200-
CENTRAL INDIANA

CITY           SKY/WX    TMP DP  RH WIND       PRES   REMARKS
ANDERSON       CLOUDY    27  18  69 W12       30.50S WCI  16
CP ATTERBURY + CLOUDY    28  14  54 W6        30.54S WCI  22
COLUMBUS       CLOUDY    27  16  63 W6        30.55R WCI  20
FRANKFORT +    CLOUDY    28  19  67 W10       30.52R WCI  19
GREENWOOD *+   CLOUDY    27  16  63 NW6       30.52S WCI  20
INDIANAPOLIS   FLURRIES  26  15  63 W8        30.51S WCI  18
-EAGLE CREEK   CLOUDY    26  16  65 W8        30.51R WCI  18
KOKOMO +       FLURRIES  26  17  68 W12       30.49S WCI  16
MARION +       CLOUDY    26  18  71 W13       30.49S WCI  15
MT COMFORT *+  CLOUDY    25  16  68 W9        30.51R WCI  15
SHELBYVILLE    CLOUDY    27  14  58 W7        30.51R WCI  19
ZIONSVILLE +   CLOUDY    25  16  68 W8        30.51S WCI  16

$$

INZ033-034-041-042-049-050-058-059-092200-
EAST CENTRAL INDIANA

CITY           SKY/WX    TMP DP  RH WIND       PRES   REMARKS
MUNCIE         CLOUDY    27  18  69 W10       30.49R WCI  17

$$

INZ060-061-067>069-081>083-085>088-092200-
SOUTHWEST INDIANA

CITY           SKY/WX    TMP DP  RH WIND       PRES   REMARKS
EVANSVILLE     PTSUNNY   29  14  53 W5        30.59S WCI  24
HUNTINGBURG *+ CLOUDY    27  16  63 W6        30.58S WCI  20
WASHINGTON +   CLOUDY    27  17  67 W7        30.58R WCI  19

$$

INZ062-063-066-070>080-084-089>092-092200-
SOUTH CENTRAL AND SOUTHEAST INDIANA

CITY           SKY/WX    TMP DP  RH WIND       PRES   REMARKS
BLOOMINGTON    CLOUDY    25  13  60 W7        30.53S WCI  17
MADISON *+     CLOUDY    27  12  54 SW7       30.56S WCI  19
NORTH VERNON + CLOUDY    27  18  69 W5        30.55R WCI  21

$$





USA.gov is the U.S. government's official web portal to all federal, state and local government web resources and services.